This demonstration page uses our WeatherBlox Daily Observations layout. Learn more.

Left ArrowRight Arrow

38.80484, -77.04692

Hourly Observations for February 23, 2018

Temp ( °F °C ) Dew Point ( °F °C ) Humidity (%) Winds ( mph kmh ) Pressure ( in mb ) Visibility ( mi km ) Precip ( " mm )
12:52 am 00:52 Cloudy with Mist and Fog 43 6.1 39 3.9 86 86 ENE 8 13 30.60 1036 6 10 0.00 0.00
1:00 am 01:00 Cloudy with Mist and Fog 42 5.6 40 4.4 92 92 ENE 9 15 30.59 1036 4 6 0.00 0.00
1:23 am 01:23 Cloudy with Drizzle 42 5.6 40 4.4 92 92 NE 9 15 30.59 1036 5 8 0.00 0.03
1:39 am 01:39 Cloudy with Mist and Fog 43 6.1 40 4.4 89 89 NE 9 15 30.62 1037 6 10 0.00 0.03
1:52 am 01:52 Cloudy with Mist and Fog 43 6.1 40 4.4 89 89 NE 10 17 30.59 1036 6 10 0.00 0.03
2:02 am 02:02 Cloudy with Mist and Fog 42 5.6 40 4.4 92 92 ENE 8 13 30.59 1036 5 8 0.00 0.00
2:11 am 02:11 Cloudy with Mist and Fog 42 5.6 40 4.4 92 92 ENE 12 19 30.59 1036 5 8 0.00 0.00
2:42 am 02:42 Cloudy 42 5.6 39 3.9 89 89 NE 8 13 30.59 1036 7 11 0.00 0.00
2:52 am 02:52 Cloudy 42 5.6 39 3.9 89 89 ENE 7 11 30.60 1036 7 11 0.00 0.00
3:03 am 03:03 Cloudy 42 5.6 38 3.3 85 85 E 8 13 30.59 1036 9 14 0.00 0.00
3:36 am 03:36 Cloudy 42 5.6 39 3.9 89 89 ENE 8 13 30.59 1036 8 13 0.00 0.03
3:52 am 03:52 Cloudy 42 5.6 39 3.9 89 89 ENE 9 15 30.59 1036 8 13 0.00 0.03
4:39 am 04:39 Cloudy 41 5 40 4.4 96 96 E 7 11 30.59 1036 7 11 0.00 0.00
4:52 am 04:52 Cloudy with Drizzle 42 5.6 40 4.4 92 92 ENE 5 7 30.58 1036 4 6 0.00 0.03
5:03 am 05:03 Cloudy with Drizzle 42 5.6 40 4.4 92 92 ENE 6 9 30.59 1036 4 6 0.00 0.03
5:17 am 05:17 Cloudy with Drizzle 42 5.6 40 4.4 92 92 NE 6 9 30.59 1036 3 5 0.00 0.03
5:21 am 05:21 Cloudy with Drizzle 42 5.6 40 4.4 92 92 ENE 9 15 30.59 1036 3 5 0.00 0.03
5:52 am 05:52 Cloudy with Drizzle 41 5 40 4.4 96 96 ENE 8 13 30.59 1036 3 5 0.00 0.03
6:07 am 06:07 Cloudy with Drizzle 41 5 40 4.4 96 96 ENE 9 15 30.59 1036 3 4 0.00 0.03
6:30 am 06:30 Cloudy with Drizzle 41 5 40 4.4 96 96 ENE 6 9 30.59 1036 3 5 0.00 0.03
6:37 am 06:37 Cloudy with Drizzle 41 5 40 4.4 96 96 ENE 7 11 30.59 1036 3 5 0.00 0.03
6:52 am 06:52 Cloudy with Drizzle 41 5 40 4.4 96 96 ENE 6 9 30.58 1036 3 5 0.00 0.03
7:07 am 07:07 Cloudy with Drizzle 42 5.6 40 4.4 92 92 ENE 8 13 30.59 1036 5 8 0.00 0.03
7:38 am 07:38 Cloudy with Light Rain 42 5.6 40 4.4 92 92 ENE 7 11 30.59 1036 4 6 0.00 0.03
7:52 am 07:52 Cloudy with Light Rain 42 5.6 40 4.4 92 92 ENE 7 11 30.59 1036 4 6 0.00 0.03
8:38 am 08:38 Cloudy 42 5.6 40 4.4 92 92 ENE 7 11 30.59 1036 10 16 0.00 0.03
8:52 am 08:52 Cloudy 42 5.6 40 4.4 92 92 E 5 7 30.58 1036 10 16 0.00 0.03
9:52 am 09:52 Cloudy 42 5.6 40 4.4 92 92 ESE 6 9 30.58 1035 10 16 0.00 0.00
10:52 am 10:52 Cloudy 43 6.1 40 4.4 89 89 ESE 7 11 30.55 1035 10 16 0.00 0.00
11:09 am 11:09 Cloudy 44 6.7 40 4.4 85 85 ESE 6 9 30.56 1035 10 16 0.00 0.00
11:26 am 11:26 Cloudy with Drizzle 43 6.1 41 5 93 93 ESE 6 9 30.53 1034 3 5 0.00 0.03
11:52 am 11:52 Cloudy with Drizzle 43 6.1 42 5.6 97 97 Calm 30.53 1034 3 5 0.00 0.03
12:52 pm 12:52 Cloudy with Drizzle 44 6.7 42 5.6 93 93 Calm 30.49 1032 3 5 0.00 0.03
1:40 pm 13:40 Cloudy with Drizzle 45 7.2 43 6.1 93 93 S 6 9 30.45 1031 3 5 0.00 0.03
1:52 pm 13:52 Cloudy 46 7.8 43 6.1 89 89 S 7 11 30.42 1030 10 16 0.00 0.03
2:21 pm 14:21 Cloudy 46 7.8 43 6.1 89 89 SSW 6 9 30.42 1030 10 16 0.00 0.00
2:52 pm 14:52 Cloudy 46 7.8 43 6.1 89 89 SSW 7 11 30.41 1030 10 16 0.00 0.00
3:52 pm 15:52 Cloudy 47 8.3 44 6.7 90 90 SSW 6 9 30.38 1029 10 16 0.00 0.00
4:52 pm 16:52 Cloudy 47 8.3 44 6.7 90 90 S 6 9 30.36 1028 10 16 0.00 0.00
5:52 pm 17:52 Cloudy 47 8.3 44 6.7 90 90 S 7 11 30.35 1028 10 16 0.00 0.00
6:52 pm 18:52 Cloudy 47 8.3 44 6.7 90 90 S 7 11 30.33 1027 10 16 0.00 0.00
7:16 pm 19:16 Cloudy 47 8.3 45 7.2 93 93 S 8 13 30.33 1027 10 16 0.00 0.00
7:38 pm 19:38 Cloudy with Drizzle 47 8.3 45 7.2 93 93 S 6 9 30.33 1027 9 14 0.00 0.03
7:47 pm 19:47 Cloudy with Drizzle 46 8 45 7 93 93 S 6 9 30.33 1027 6 10 0.00 0.03
7:52 pm 19:52 Cloudy with Drizzle 47 8.3 45 7.2 93 93 S 6 9 30.32 1027 6 10 0.00 0.03
8:09 pm 20:09 Cloudy with Drizzle 46 7.8 46 7.8 100 100 S 7 11 30.33 1027 4 6 0.00 0.03
8:52 pm 20:52 Cloudy with Drizzle 47 8.3 46 7.8 97 97 S 6 9 30.30 1026 4 6 0.00 0.03
9:08 pm 21:08 Cloudy with Drizzle 47 8.3 46 7.8 97 97 SSW 6 9 30.30 1026 3 5 0.00 0.03
9:40 pm 21:40 Cloudy with Drizzle 47 8.3 46 7.8 97 97 SSW 6 9 30.30 1026 3 4 0.00 0.03
9:52 pm 21:52 Cloudy with Drizzle 47 8.3 46 7.8 97 97 S 7 11 30.29 1026 3 4 0.00 0.03
10:14 pm 22:14 Cloudy with Drizzle 47 8.3 47 8.3 100 100 SSW 6 9 30.30 1026 3 4 0.00 0.03
10:52 pm 22:52 Cloudy with Mist and Fog 47 8.3 47 8.3 100 100 S 3 6 30.27 1025 3 5 0.00 0.03
11:16 pm 23:16 Cloudy with Mist and Fog 48 8.9 47 8.3 96 96 S 6 9 30.27 1025 2 3 0.00 0.00
11:52 pm 23:52 Cloudy with Mist and Fog 48 8.9 48 8.9 100 100 S 5 7 30.24 1024 2 2 0.00 0.00

Powered by AerisWeather